owner,sensor,date,latitude,longitude,vertical_datum,wind_speed,wind_to_direction,wind_speed_of_gust,qcFlag 
TCOON,ioos:station:TCOON:009:1,2009-09-01T00:00:00Z,27.8398,-97.0727,0.0,2.0,199.0,2.9,'11111222,11111222,11111222' 
TCOON,ioos:station:TCOON:009:1,2009-09-01T01:00:00Z,27.8398,-97.0727,0.0,1.7,110.0,2.4,'11111222,11111222,11111222' 
TCOON,ioos:station:TCOON:009:1,2009-09-01T03:00:00Z,27.8398,-97.0727,0.0,3.0,55.0,4.2,'11111222,11111222,11111222' 
TCOON,ioos:station:TCOON:009:1,2009-09-01T04:00:00Z,27.8398,-97.0727,0.0,3.4,74.0,4.3,'11111222,11111222,11111222' 
TCOON,ioos:station:TCOON:009:1,2009-09-01T05:00:00Z,27.8398,-97.0727,0.0,3.7,97.0,4.5,'11111222,11111222,11111222' 
TCOON,ioos:station:TCOON:009:1,2009-09-01T06:00:00Z,27.8398,-97.0727,0.0,3.6,117.0,4.7,'11111222,11111222,11111222' 
TCOON,ioos:station:TCOON:009:1,2009-09-01T07:00:00Z,27.8398,-97.0727,0.0,2.7,124.0,4.1,'11111222,11111222,11111222' 
TCOON,ioos:station:TCOON:009:1,2009-09-01T08:00:00Z,27.8398,-97.0727,0.0,2.6,129.0,3.5,'11111222,11111222,11111222' 
TCOON,ioos:station:TCOON:009:1,2009-09-01T09:00:00Z,27.8398,-97.0727,0.0,1.6,150.0,2.7,'11111222,11111222,11111222' 
TCOON,ioos:station:TCOON:009:1,2009-09-01T10:00:00Z,27.8398,-97.0727,0.0,1.1,119.0,2.0,'11111222,11111222,11111222' 
TCOON,ioos:station:TCOON:009:1,2009-09-01T11:00:00Z,27.8398,-97.0727,0.0,1.0,117.0,1.4,'11111222,11111222,11111222' 
TCOON,ioos:station:TCOON:009:1,2009-09-01T12:00:00Z,27.8398,-97.0727,0.0,0.8,126.0,1.2,'11111222,11111222,11111222' 
TCOON,ioos:station:TCOON:009:1,2009-09-01T13:00:00Z,27.8398,-97.0727,0.0,1.3,106.0,1.8,'11111222,11111222,11111222' 
TCOON,ioos:station:TCOON:009:1,2009-09-01T14:00:00Z,27.8398,-97.0727,0.0,1.3,48.0,2.4,'11111222,11111222,11111222' 
TCOON,ioos:station:TCOON:009:1,2009-09-01T15:00:00Z,27.8398,-97.0727,0.0,4.0,27.0,4.9,'11111222,11111222,11111222' 
TCOON,ioos:station:TCOON:009:1,2009-09-01T16:00:00Z,27.8398,-97.0727,0.0,3.2,21.0,4.0,'11111222,11111222,11111222' 
TCOON,ioos:station:TCOON:009:1,2009-09-01T17:00:00Z,27.8398,-97.0727,0.0,5.2,92.0,6.4,'11111222,11111222,11111222' 
TCOON,ioos:station:TCOON:009:1,2009-09-01T18:00:00Z,27.8398,-97.0727,0.0,5.0,85.0,6.2,'11111222,11111222,11111222' 
TCOON,ioos:station:TCOON:009:1,2009-09-01T19:00:00Z,27.8398,-97.0727,0.0,5.0,90.0,7.5,'11111222,11111222,11111222' 
TCOON,ioos:station:TCOON:009:1,2009-09-01T20:00:00Z,27.8398,-97.0727,0.0,6.1,83.0,7.3,'11111222,11111222,11111222' 
TCOON,ioos:station:TCOON:009:1,2009-09-01T21:00:00Z,27.8398,-97.0727,0.0,4.7,85.0,6.3,'11111222,11111222,11111222' 
TCOON,ioos:station:TCOON:009:1,2009-09-01T22:00:00Z,27.8398,-97.0727,0.0,3.4,94.0,4.2,'11111222,11111222,11111222' 
TCOON,ioos:station:TCOON:009:1,2009-09-01T23:00:00Z,27.8398,-97.0727,0.0,3.7,101.0,4.5,'11111222,11111222,11111222' 
TCOON,ioos:station:TCOON:009:1,2009-09-02T00:00:00Z,27.8398,-97.0727,0.0,3.0,91.0,4.4,'11111222,11111222,11111222' 
TCOON,ioos:station:TCOON:009:1,2009-09-02T01:00:00Z,27.8398,-97.0727,0.0,3.0,98.0,4.7,'11111222,11111222,11111222' 
TCOON,ioos:station:TCOON:009:1,2009-09-02T02:00:00Z,27.8398,-97.0727,0.0,1.8,114.0,3.2,'11111222,11111222,11111222' 
TCOON,ioos:station:TCOON:009:1,2009-09-02T03:00:00Z,27.8398,-97.0727,0.0,1.8,108.0,3.1,'11111222,11111222,11111222' 
TCOON,ioos:station:TCOON:009:1,2009-09-02T04:00:00Z,27.8398,-97.0727,0.0,2.4,133.0,3.1,'11111222,11111222,11111222' 
TCOON,ioos:station:TCOON:009:1,2009-09-02T05:00:00Z,27.8398,-97.0727,0.0,2.3,93.0,3.2,'11111222,11111222,11111222' 
TCOON,ioos:station:TCOON:009:1,2009-09-02T06:00:00Z,27.8398,-97.0727,0.0,2.4,96.0,3.7,'11111222,11111222,11111222' 
TCOON,ioos:station:TCOON:009:1,2009-09-02T07:00:00Z,27.8398,-97.0727,0.0,2.5,129.0,2.9,'11111222,11111222,11111222' 
TCOON,ioos:station:TCOON:009:1,2009-09-02T08:00:00Z,27.8398,-97.0727,0.0,2.0,119.0,2.3,'11111222,11111222,11111222' 
TCOON,ioos:station:TCOON:009:1,2009-09-02T09:00:00Z,27.8398,-97.0727,0.0,2.9,107.0,3.7,'11111222,11111222,11111222' 
TCOON,ioos:station:TCOON:009:1,2009-09-02T10:00:00Z,27.8398,-97.0727,0.0,3.2,106.0,3.9,'11111222,11111222,11111222' 
TCOON,ioos:station:TCOON:009:1,2009-09-02T11:00:00Z,27.8398,-97.0727,0.0,2.7,109.0,4.0,'11111222,11111222,11111222' 
TCOON,ioos:station:TCOON:009:1,2009-09-02T12:00:00Z,27.8398,-97.0727,0.0,2.1,108.0,3.2,'11111222,11111222,11111222' 
TCOON,ioos:station:TCOON:009:1,2009-09-02T13:00:00Z,27.8398,-97.0727,0.0,3.3,100.0,3.7,'11111222,11111222,11111222' 
TCOON,ioos:station:TCOON:009:1,2009-09-02T14:00:00Z,27.8398,-97.0727,0.0,3.5,104.0,4.8,'11111222,11111222,11111222' 
TCOON,ioos:station:TCOON:009:1,2009-09-02T15:00:00Z,27.8398,-97.0727,0.0,3.3,74.0,4.7,'11111222,11111222,11111222' 
TCOON,ioos:station:TCOON:009:1,2009-09-02T16:00:00Z,27.8398,-97.0727,0.0,3.0,85.0,4.5,'11111222,11111222,11111222' 
TCOON,ioos:station:TCOON:009:1,2009-09-02T17:00:00Z,27.8398,-97.0727,0.0,3.4,103.0,4.0,'11111222,11111222,11111222' 
TCOON,ioos:station:TCOON:009:1,2009-09-02T18:00:00Z,27.8398,-97.0727,0.0,3.2,109.0,5.8,'11111222,11111222,11111222' 
TCOON,ioos:station:TCOON:009:1,2009-09-02T19:00:00Z,27.8398,-97.0727,0.0,3.0,119.0,4.3,'11111222,11111222,11111222' 
TCOON,ioos:station:TCOON:009:1,2009-09-02T20:00:00Z,27.8398,-97.0727,0.0,3.4,150.0,4.7,'11111222,11111222,11111222' 
TCOON,ioos:station:TCOON:009:1,2009-09-02T21:00:00Z,27.8398,-97.0727,0.0,4.5,146.0,5.9,'11111222,11111222,11111222' 
TCOON,ioos:station:TCOON:009:1,2009-09-02T22:00:00Z,27.8398,-97.0727,0.0,4.7,128.0,6.4,'11111222,11111222,11111222' 
TCOON,ioos:station:TCOON:009:1,2009-09-02T23:00:00Z,27.8398,-97.0727,0.0,4.7,125.0,6.2,'11111222,11111222,11111222' 
TCOON,ioos:station:TCOON:009:1,2009-09-03T00:00:00Z,27.8398,-97.0727,0.0,3.9,146.0,6.4,'11111222,11111222,11111222' 
TCOON,ioos:station:TCOON:009:1,2009-09-03T01:00:00Z,27.8398,-97.0727,0.0,3.8,138.0,5.5,'11111222,11111222,11111222' 
TCOON,ioos:station:TCOON:009:1,2009-09-03T02:00:00Z,27.8398,-97.0727,0.0,3.1,145.0,5.6,'11111222,11111222,11111222' 
TCOON,ioos:station:TCOON:009:1,2009-09-03T03:00:00Z,27.8398,-97.0727,0.0,4.1,148.0,5.5,'11111222,11111222,11111222' 
TCOON,ioos:station:TCOON:009:1,2009-09-03T04:00:00Z,27.8398,-97.0727,0.0,3.4,169.0,4.6,'11111222,11111222,11111222' 
TCOON,ioos:station:TCOON:009:1,2009-09-03T05:00:00Z,27.8398,-97.0727,0.0,3.1,179.0,5.3,'11111222,11111222,11111222' 
TCOON,ioos:station:TCOON:009:1,2009-09-03T06:00:00Z,27.8398,-97.0727,0.0,2.2,177.0,4.5,'11111222,11111222,11111222' 
TCOON,ioos:station:TCOON:009:1,2009-09-03T07:00:00Z,27.8398,-97.0727,0.0,2.6,185.0,4.2,'11111222,11111222,11111222' 
TCOON,ioos:station:TCOON:009:1,2009-09-03T08:00:00Z,27.8398,-97.0727,0.0,2.1,182.0,3.6,'11111222,11111222,11111222' 
TCOON,ioos:station:TCOON:009:1,2009-09-03T09:00:00Z,27.8398,-97.0727,0.0,1.7,178.0,2.6,'11111222,11111222,11111222' 
TCOON,ioos:station:TCOON:009:1,2009-09-03T10:00:00Z,27.8398,-97.0727,0.0,1.0,204.0,1.8,'11111222,11111222,11111222' 
TCOON,ioos:station:TCOON:009:1,2009-09-03T11:00:00Z,27.8398,-97.0727,0.0,1.8,228.0,2.1,'11111222,11111222,11111222' 
TCOON,ioos:station:TCOON:009:1,2009-09-03T12:00:00Z,27.8398,-97.0727,0.0,1.7,248.0,2.4,'11111222,11111222,11111222' 
TCOON,ioos:station:TCOON:009:1,2009-09-03T13:00:00Z,27.8398,-97.0727,0.0,1.2,360.0,1.4,'11111222,11144222,11111222' 
TCOON,ioos:station:TCOON:009:1,2009-09-03T14:00:00Z,27.8398,-97.0727,0.0,1.3,317.0,2.3,'11111222,11111222,11111222' 
TCOON,ioos:station:TCOON:009:1,2009-09-03T15:00:00Z,27.8398,-97.0727,0.0,2.7,247.0,3.7,'11111222,11111222,11111222' 
TCOON,ioos:station:TCOON:009:1,2009-09-03T16:00:00Z,27.8398,-97.0727,0.0,3.0,260.0,5.4,'11111222,11111222,11111222' 
TCOON,ioos:station:TCOON:009:1,2009-09-03T17:00:00Z,27.8398,-97.0727,0.0,0.7,269.0,4.1,'11111222,11111222,11111222' 
TCOON,ioos:station:TCOON:009:1,2009-09-03T18:00:00Z,27.8398,-97.0727,0.0,2.9,170.0,5.1,'11111222,11111222,11111222' 
TCOON,ioos:station:TCOON:009:1,2009-09-03T19:00:00Z,27.8398,-97.0727,0.0,4.6,133.0,6.1,'11111222,11111222,11111222' 
TCOON,ioos:station:TCOON:009:1,2009-09-03T20:00:00Z,27.8398,-97.0727,0.0,3.8,133.0,5.8,'11111222,11111222,11111222' 
TCOON,ioos:station:TCOON:009:1,2009-09-03T21:00:00Z,27.8398,-97.0727,0.0,3.2,130.0,5.2,'11111222,11111222,11111222' 
TCOON,ioos:station:TCOON:009:1,2009-09-03T22:00:00Z,27.8398,-97.0727,0.0,3.5,132.0,5.5,'11111222,11111222,11111222' 
TCOON,ioos:station:TCOON:009:1,2009-09-03T23:00:00Z,27.8398,-97.0727,0.0,5.3,129.0,6.4,'11111222,11111222,11111222' 
TCOON,ioos:station:TCOON:009:1,2009-09-04T00:00:00Z,27.8398,-97.0727,0.0,3.4,140.0,6.2,'11111222,11111222,11111222' 
TCOON,ioos:station:TCOON:009:1,2009-09-04T01:00:00Z,27.8398,-97.0727,0.0,4.6,135.0,7.3,'11111222,11111222,11111222' 
TCOON,ioos:station:TCOON:009:1,2009-09-04T02:00:00Z,27.8398,-97.0727,0.0,3.7,150.0,10.5,'11111222,11111222,11111222' 
TCOON,ioos:station:TCOON:009:1,2009-09-04T03:00:00Z,27.8398,-97.0727,0.0,3.6,145.0,5.6,'11111222,11111222,11111222' 
TCOON,ioos:station:TCOON:009:1,2009-09-04T04:00:00Z,27.8398,-97.0727,0.0,3.5,147.0,5.6,'11111222,11111222,11111222' 
TCOON,ioos:station:TCOON:009:1,2009-09-04T05:00:00Z,27.8398,-97.0727,0.0,2.5,159.0,4.9,'11111222,11111222,11111222' 
TCOON,ioos:station:TCOON:009:1,2009-09-04T06:00:00Z,27.8398,-97.0727,0.0,3.7,178.0,5.6,'11111222,11111222,11111222' 
TCOON,ioos:station:TCOON:009:1,2009-09-04T07:00:00Z,27.8398,-97.0727,0.0,3.6,191.0,5.0,'11111222,11111222,11111222' 
TCOON,ioos:station:TCOON:009:1,2009-09-04T08:00:00Z,27.8398,-97.0727,0.0,2.5,199.0,4.5,'11111222,11111222,11111222' 
TCOON,ioos:station:TCOON:009:1,2009-09-04T09:00:00Z,27.8398,-97.0727,0.0,1.0,208.0,2.4,'11111222,11111222,11111222' 
TCOON,ioos:station:TCOON:009:1,2009-09-04T10:00:00Z,27.8398,-97.0727,0.0,0.0,119.0,99.0,'11111222,11111222,11144222' 
TCOON,ioos:station:TCOON:009:1,2009-09-04T11:00:00Z,27.8398,-97.0727,0.0,1.4,240.0,1.6,'11111222,11111222,11111222' 
TCOON,ioos:station:TCOON:009:1,2009-09-04T12:00:00Z,27.8398,-97.0727,0.0,1.4,248.0,2.7,'11111222,11111222,11111222' 
TCOON,ioos:station:TCOON:009:1,2009-09-04T13:00:00Z,27.8398,-97.0727,0.0,2.2,328.0,2.4,'11111222,11111222,11111222' 
TCOON,ioos:station:TCOON:009:1,2009-09-04T14:00:00Z,27.8398,-97.0727,0.0,3.4,348.0,4.2,'11111222,11111222,11111222' 
TCOON,ioos:station:TCOON:009:1,2009-09-04T15:00:00Z,27.8398,-97.0727,0.0,3.5,352.0,4.3,'11111222,11111222,11111222' 
TCOON,ioos:station:TCOON:009:1,2009-09-04T16:00:00Z,27.8398,-97.0727,0.0,4.0,23.0,4.5,'11111222,11111222,11111222' 
TCOON,ioos:station:TCOON:009:1,2009-09-04T17:00:00Z,27.8398,-97.0727,0.0,2.9,40.0,4.7,'11111222,11111222,11111222' 
TCOON,ioos:station:TCOON:009:1,2009-09-04T18:00:00Z,27.8398,-97.0727,0.0,4.4,94.0,5.9,'11111222,11111222,11111222' 
TCOON,ioos:station:TCOON:009:1,2009-09-04T19:00:00Z,27.8398,-97.0727,0.0,3.6,90.0,5.1,'11111222,11111222,11111222' 
TCOON,ioos:station:TCOON:009:1,2009-09-04T20:00:00Z,27.8398,-97.0727,0.0,5.3,110.0,6.9,'11111222,11111222,11111222' 
TCOON,ioos:station:TCOON:009:1,2009-09-04T21:00:00Z,27.8398,-97.0727,0.0,4.2,115.0,7.5,'11111222,11111222,11111222' 
TCOON,ioos:station:TCOON:009:1,2009-09-04T22:00:00Z,27.8398,-97.0727,0.0,6.2,103.0,7.9,'11111222,11111222,11111222' 
TCOON,ioos:station:TCOON:009:1,2009-09-04T23:00:00Z,27.8398,-97.0727,0.0,4.1,111.0,6.0,'11111222,11111222,11111222' 
TCOON,ioos:station:TCOON:009:1,2009-09-05T00:00:00Z,27.8398,-97.0727,0.0,3.1,114.0,4.4,'11111222,11111222,11111222' 
TCOON,ioos:station:TCOON:009:1,2009-09-05T01:00:00Z,27.8398,-97.0727,0.0,3.1,122.0,3.6,'11111222,11111222,11111222' 
TCOON,ioos:station:TCOON:009:1,2009-09-05T02:00:00Z,27.8398,-97.0727,0.0,3.5,120.0,4.4,'11111222,11111222,11111222' 
TCOON,ioos:station:TCOON:009:1,2009-09-05T03:00:00Z,27.8398,-97.0727,0.0,3.4,126.0,3.9,'11111222,11111222,11111222' 
TCOON,ioos:station:TCOON:009:1,2009-09-05T04:00:00Z,27.8398,-97.0727,0.0,3.9,128.0,4.8,'11111222,11111222,11111222' 
TCOON,ioos:station:TCOON:009:1,2009-09-05T05:00:00Z,27.8398,-97.0727,0.0,2.8,133.0,3.9,'11111222,11111222,11111222' 
TCOON,ioos:station:TCOON:009:1,2009-09-05T06:00:00Z,27.8398,-97.0727,0.0,3.1,121.0,3.7,'11111222,11111222,11111222' 
TCOON,ioos:station:TCOON:009:1,2009-09-05T07:00:00Z,27.8398,-97.0727,0.0,2.6,121.0,4.3,'11111222,11111222,11111222' 
TCOON,ioos:station:TCOON:009:1,2009-09-05T08:00:00Z,27.8398,-97.0727,0.0,1.9,127.0,3.5,'11111222,11111222,11111222' 
TCOON,ioos:station:TCOON:009:1,2009-09-05T09:00:00Z,27.8398,-97.0727,0.0,1.1,118.0,9.0,'11111222,11111222,11111222' 
TCOON,ioos:station:TCOON:009:1,2009-09-05T10:00:00Z,27.8398,-97.0727,0.0,1.0,120.0,1.4,'11111222,11111222,11111222' 
TCOON,ioos:station:TCOON:009:1,2009-09-05T11:00:00Z,27.8398,-97.0727,0.0,1.9,84.0,2.3,'11111222,11111222,11111222' 
TCOON,ioos:station:TCOON:009:1,2009-09-05T12:00:00Z,27.8398,-97.0727,0.0,3.6,66.0,4.1,'11111222,11111222,11111222' 
TCOON,ioos:station:TCOON:009:1,2009-09-05T13:00:00Z,27.8398,-97.0727,0.0,2.2,24.0,2.6,'11111222,11111222,11111222' 
TCOON,ioos:station:TCOON:009:1,2009-09-05T14:00:00Z,27.8398,-97.0727,0.0,4.4,352.0,5.5,'11111222,11111222,11111222' 
TCOON,ioos:station:TCOON:009:1,2009-09-05T15:00:00Z,27.8398,-97.0727,0.0,4.3,20.0,5.8,'11111222,11111222,11111222' 
TCOON,ioos:station:TCOON:009:1,2009-09-05T16:00:00Z,27.8398,-97.0727,0.0,4.3,38.0,5.3,'11111222,11111222,11111222' 
TCOON,ioos:station:TCOON:009:1,2009-09-05T17:00:00Z,27.8398,-97.0727,0.0,5.1,61.0,7.4,'11111222,11111222,11111222' 
TCOON,ioos:station:TCOON:009:1,2009-09-05T18:00:00Z,27.8398,-97.0727,0.0,6.5,62.0,7.7,'11111222,11111222,11111222' 
TCOON,ioos:station:TCOON:009:1,2009-09-05T19:00:00Z,27.8398,-97.0727,0.0,5.5,94.0,8.6,'11111222,11111222,11111222' 
TCOON,ioos:station:TCOON:009:1,2009-09-05T20:00:00Z,27.8398,-97.0727,0.0,5.1,89.0,6.9,'11111222,11111222,11111222' 
TCOON,ioos:station:TCOON:009:1,2009-09-05T21:00:00Z,27.8398,-97.0727,0.0,5.6,105.0,7.4,'11111222,11111222,11111222' 
TCOON,ioos:station:TCOON:009:1,2009-09-05T22:00:00Z,27.8398,-97.0727,0.0,5.2,94.0,6.9,'11111222,11111222,11111222' 
TCOON,ioos:station:TCOON:009:1,2009-09-05T23:00:00Z,27.8398,-97.0727,0.0,4.6,104.0,6.0,'11111222,11111222,11111222' 
TCOON,ioos:station:TCOON:009:1,2009-09-06T00:00:00Z,27.8398,-97.0727,0.0,4.5,99.0,5.4,'11111222,11111222,11111222' 
TCOON,ioos:station:TCOON:009:1,2009-09-06T01:00:00Z,27.8398,-97.0727,0.0,3.3,96.0,5.4,'11111222,11111222,11111222' 
TCOON,ioos:station:TCOON:009:1,2009-09-06T02:00:00Z,27.8398,-97.0727,0.0,2.7,111.0,4.0,'11111222,11111222,11111222' 
TCOON,ioos:station:TCOON:009:1,2009-09-06T03:00:00Z,27.8398,-97.0727,0.0,2.6,85.0,3.6,'11111222,11111222,11111222' 
TCOON,ioos:station:TCOON:009:1,2009-09-06T04:00:00Z,27.8398,-97.0727,0.0,3.4,81.0,4.0,'11111222,11111222,11111222' 
TCOON,ioos:station:TCOON:009:1,2009-09-06T05:00:00Z,27.8398,-97.0727,0.0,3.3,72.0,4.3,'11111222,11111222,11111222' 
TCOON,ioos:station:TCOON:009:1,2009-09-06T06:00:00Z,27.8398,-97.0727,0.0,3.3,83.0,4.0,'11111222,11111222,11111222' 
TCOON,ioos:station:TCOON:009:1,2009-09-06T07:00:00Z,27.8398,-97.0727,0.0,0.9,126.0,1.6,'11111222,11111222,11111222' 
TCOON,ioos:station:TCOON:009:1,2009-09-06T08:00:00Z,27.8398,-97.0727,0.0,0.3,152.0,1.4,'11111222,11111222,11111222' 
TCOON,ioos:station:TCOON:009:1,2009-09-06T09:00:00Z,27.8398,-97.0727,0.0,3.2,355.0,3.7,'11111222,11111222,11111222' 
TCOON,ioos:station:TCOON:009:1,2009-09-06T10:00:00Z,27.8398,-97.0727,0.0,4.0,8.0,4.8,'11111222,11111222,11111222' 
TCOON,ioos:station:TCOON:009:1,2009-09-06T11:00:00Z,27.8398,-97.0727,0.0,4.2,23.0,5.4,'11111222,11111222,11111222' 
TCOON,ioos:station:TCOON:009:1,2009-09-06T12:00:00Z,27.8398,-97.0727,0.0,4.2,33.0,5.0,'11111222,11111222,11111222' 
TCOON,ioos:station:TCOON:009:1,2009-09-06T13:00:00Z,27.8398,-97.0727,0.0,3.9,22.0,4.6,'11111222,11111222,11111222' 
TCOON,ioos:station:TCOON:009:1,2009-09-06T14:00:00Z,27.8398,-97.0727,0.0,5.6,46.0,6.7,'11111222,11111222,11111222' 
TCOON,ioos:station:TCOON:009:1,2009-09-06T15:00:00Z,27.8398,-97.0727,0.0,3.7,54.0,5.6,'11111222,11111222,11111222' 
TCOON,ioos:station:TCOON:009:1,2009-09-06T16:00:00Z,27.8398,-97.0727,0.0,4.8,68.0,6.0,'11111222,11111222,11111222' 
TCOON,ioos:station:TCOON:009:1,2009-09-06T17:00:00Z,27.8398,-97.0727,0.0,4.7,74.0,11.9,'11111222,11111222,11111222' 
TCOON,ioos:station:TCOON:009:1,2009-09-06T18:00:00Z,27.8398,-97.0727,0.0,4.7,69.0,6.0,'11111222,11111222,11111222' 
TCOON,ioos:station:TCOON:009:1,2009-09-06T19:00:00Z,27.8398,-97.0727,0.0,4.8,80.0,5.8,'11111222,11111222,11111222' 
TCOON,ioos:station:TCOON:009:1,2009-09-06T20:00:00Z,27.8398,-97.0727,0.0,4.5,99.0,5.7,'11111222,11111222,11111222' 
TCOON,ioos:station:TCOON:009:1,2009-09-06T21:00:00Z,27.8398,-97.0727,0.0,5.3,106.0,6.8,'11111222,11111222,11111222' 
TCOON,ioos:station:TCOON:009:1,2009-09-06T22:00:00Z,27.8398,-97.0727,0.0,5.1,119.0,7.2,'11111222,11111222,11111222' 
TCOON,ioos:station:TCOON:009:1,2009-09-06T23:00:00Z,27.8398,-97.0727,0.0,4.8,130.0,7.1,'11111222,11111222,11111222' 
TCOON,ioos:station:TCOON:009:1,2009-09-07T00:00:00Z,27.8398,-97.0727,0.0,3.9,122.0,5.7,'11111222,11111222,11111222' 
TCOON,ioos:station:TCOON:009:1,2009-09-07T01:00:00Z,27.8398,-97.0727,0.0,3.6,115.0,4.6,'11111222,11111222,11111222' 
TCOON,ioos:station:TCOON:009:1,2009-09-07T02:00:00Z,27.8398,-97.0727,0.0,3.6,110.0,5.6,'11111222,11111222,11111222' 
TCOON,ioos:station:TCOON:009:1,2009-09-07T03:00:00Z,27.8398,-97.0727,0.0,3.6,124.0,5.5,'11111222,11111222,11111222' 
TCOON,ioos:station:TCOON:009:1,2009-09-07T04:00:00Z,27.8398,-97.0727,0.0,2.7,123.0,4.0,'11111222,11111222,11111222' 
TCOON,ioos:station:TCOON:009:1,2009-09-07T05:00:00Z,27.8398,-97.0727,0.0,3.3,132.0,4.5,'11111222,11111222,11111222' 
TCOON,ioos:station:TCOON:009:1,2009-09-07T06:00:00Z,27.8398,-97.0727,0.0,2.4,126.0,3.7,'11111222,11111222,11111222' 
TCOON,ioos:station:TCOON:009:1,2009-09-07T07:00:00Z,27.8398,-97.0727,0.0,1.2,168.0,2.4,'11111222,11111222,11111222' 
TCOON,ioos:station:TCOON:009:1,2009-09-07T08:00:00Z,27.8398,-97.0727,0.0,2.0,181.0,3.5,'11111222,11111222,11111222' 
TCOON,ioos:station:TCOON:009:1,2009-09-07T09:00:00Z,27.8398,-97.0727,0.0,1.1,158.0,2.1,'11111222,11111222,11111222' 
TCOON,ioos:station:TCOON:009:1,2009-09-07T10:00:00Z,27.8398,-97.0727,0.0,1.0,186.0,1.3,'11111222,11111222,11111222' 
TCOON,ioos:station:TCOON:009:1,2009-09-07T11:00:00Z,27.8398,-97.0727,0.0,0.6,138.0,1.0,'11111222,11111222,11111222' 
TCOON,ioos:station:TCOON:009:1,2009-09-07T12:00:00Z,27.8398,-97.0727,0.0,1.2,232.0,1.3,'11111222,11111222,11111222' 
TCOON,ioos:station:TCOON:009:1,2009-09-07T13:00:00Z,27.8398,-97.0727,0.0,1.8,360.0,2.0,'11111222,11144222,11111222' 
TCOON,ioos:station:TCOON:009:1,2009-09-07T14:00:00Z,27.8398,-97.0727,0.0,2.3,23.0,3.1,'11111222,11111222,11111222' 
TCOON,ioos:station:TCOON:009:1,2009-09-07T15:00:00Z,27.8398,-97.0727,0.0,3.9,30.0,4.7,'11111222,11111222,11111222' 
TCOON,ioos:station:TCOON:009:1,2009-09-07T16:00:00Z,27.8398,-97.0727,0.0,4.9,66.0,6.4,'11111222,11111222,11111222' 
TCOON,ioos:station:TCOON:009:1,2009-09-07T17:00:00Z,27.8398,-97.0727,0.0,4.3,78.0,5.6,'11111222,11111222,11111222' 
TCOON,ioos:station:TCOON:009:1,2009-09-07T18:00:00Z,27.8398,-97.0727,0.0,4.9,80.0,6.2,'11111222,11111222,11111222' 
TCOON,ioos:station:TCOON:009:1,2009-09-07T19:00:00Z,27.8398,-97.0727,0.0,5.0,97.0,6.5,'11111222,11111222,11111222' 
TCOON,ioos:station:TCOON:009:1,2009-09-07T20:00:00Z,27.8398,-97.0727,0.0,5.8,95.0,7.3,'11111222,11111222,11111222' 
TCOON,ioos:station:TCOON:009:1,2009-09-07T21:00:00Z,27.8398,-97.0727,0.0,5.7,99.0,7.3,'11111222,11111222,11111222' 
TCOON,ioos:station:TCOON:009:1,2009-09-07T22:00:00Z,27.8398,-97.0727,0.0,6.2,96.0,8.1,'11111222,11111222,11111222' 
TCOON,ioos:station:TCOON:009:1,2009-09-07T23:00:00Z,27.8398,-97.0727,0.0,5.5,111.0,8.2,'11111222,11111222,11111222' 
TCOON,ioos:station:TCOON:009:1,2009-09-08T00:00:00Z,27.8398,-97.0727,0.0,4.3,109.0,7.8,'11111222,11111222,11111222' 
TCOON,ioos:station:TCOON:009:1,2009-09-08T01:00:00Z,27.8398,-97.0727,0.0,4.5,129.0,6.7,'11111222,11111222,11111222' 
TCOON,ioos:station:TCOON:009:1,2009-09-08T02:00:00Z,27.8398,-97.0727,0.0,3.9,134.0,6.1,'11111222,11111222,11111222' 
TCOON,ioos:station:TCOON:009:1,2009-09-08T03:00:00Z,27.8398,-97.0727,0.0,3.4,136.0,4.4,'11111222,11111222,11111222' 
TCOON,ioos:station:TCOON:009:1,2009-09-08T04:00:00Z,27.8398,-97.0727,0.0,3.0,138.0,4.0,'11111222,11111222,11111222' 
TCOON,ioos:station:TCOON:009:1,2009-09-08T05:00:00Z,27.8398,-97.0727,0.0,2.5,153.0,4.8,'11111222,11111222,11111222' 
TCOON,ioos:station:TCOON:009:1,2009-09-08T06:00:00Z,27.8398,-97.0727,0.0,2.0,147.0,2.7,'11111222,11111222,11111222' 
TCOON,ioos:station:TCOON:009:1,2009-09-08T07:00:00Z,27.8398,-97.0727,0.0,2.0,149.0,3.7,'11111222,11111222,11111222' 
TCOON,ioos:station:TCOON:009:1,2009-09-08T08:00:00Z,27.8398,-97.0727,0.0,1.6,141.0,3.8,'11111222,11111222,11111222' 
TCOON,ioos:station:TCOON:009:1,2009-09-08T09:00:00Z,27.8398,-97.0727,0.0,2.3,130.0,3.9,'11111222,11111222,11111222' 
TCOON,ioos:station:TCOON:009:1,2009-09-08T10:00:00Z,27.8398,-97.0727,0.0,2.6,142.0,3.7,'11111222,11111222,11111222' 
TCOON,ioos:station:TCOON:009:1,2009-09-08T11:00:00Z,27.8398,-97.0727,0.0,1.8,142.0,4.3,'11111222,11111222,11111222' 
TCOON,ioos:station:TCOON:009:1,2009-09-08T12:00:00Z,27.8398,-97.0727,0.0,4.1,217.0,6.3,'11111222,11111222,11111222' 
TCOON,ioos:station:TCOON:009:1,2009-09-08T13:00:00Z,27.8398,-97.0727,0.0,1.5,216.0,4.0,'11111222,11111222,11111222' 
TCOON,ioos:station:TCOON:009:1,2009-09-08T14:00:00Z,27.8398,-97.0727,0.0,1.4,266.0,2.6,'11111222,11111222,11111222' 
TCOON,ioos:station:TCOON:009:1,2009-09-08T15:00:00Z,27.8398,-97.0727,0.0,2.8,181.0,4.5,'11111222,11111222,11111222' 
TCOON,ioos:station:TCOON:009:1,2009-09-08T16:00:00Z,27.8398,-97.0727,0.0,2.3,180.0,4.3,'11111222,11111222,11111222' 
TCOON,ioos:station:TCOON:009:1,2009-09-08T17:00:00Z,27.8398,-97.0727,0.0,3.9,180.0,4.7,'11111222,11111222,11111222' 
TCOON,ioos:station:TCOON:009:1,2009-09-08T18:00:00Z,27.8398,-97.0727,0.0,3.2,187.0,5.0,'11111222,11111222,11111222' 
TCOON,ioos:station:TCOON:009:1,2009-09-08T19:00:00Z,27.8398,-97.0727,0.0,4.6,130.0,,'1111122,1111122,1111122' 
TCOON,ioos:station:TCOON:009:1,2009-09-08T21:00:00Z,27.8398,-97.0727,0.0,4.6,140.0,,'1111122,1111122,1111122' 
TCOON,ioos:station:TCOON:009:1,2009-09-08T22:00:00Z,27.8398,-97.0727,0.0,6.2,120.0,,'1111122,1111122,1111122' 
TCOON,ioos:station:TCOON:009:1,2009-09-08T23:00:00Z,27.8398,-97.0727,0.0,5.1,120.0,,'1111122,1111122,1111122' 
TCOON,ioos:station:TCOON:009:1,2009-09-09T01:00:00Z,27.8398,-97.0727,0.0,5.7,130.0,,'1111122,1111122,1111122' 
TCOON,ioos:station:TCOON:009:1,2009-09-09T02:00:00Z,27.8398,-97.0727,0.0,3.1,150.0,,'1111122,1111122,1111122' 
TCOON,ioos:station:TCOON:009:1,2009-09-09T03:00:00Z,27.8398,-97.0727,0.0,4.1,130.0,,'1111122,1111122,1111122' 
TCOON,ioos:station:TCOON:009:1,2009-09-09T04:00:00Z,27.8398,-97.0727,0.0,3.6,140.0,,'1111122,1111122,1111122' 
TCOON,ioos:station:TCOON:009:1,2009-09-09T05:00:00Z,27.8398,-97.0727,0.0,4.1,160.0,,'1111122,1111122,1111122' 
TCOON,ioos:station:TCOON:009:1,2009-09-09T06:00:00Z,27.8398,-97.0727,0.0,3.1,170.0,,'1111122,1111122,1111122' 
TCOON,ioos:station:TCOON:009:1,2009-09-09T07:00:00Z,27.8398,-97.0727,0.0,2.1,160.0,,'1111122,1111122,1111122' 
TCOON,ioos:station:TCOON:009:1,2009-09-09T08:00:00Z,27.8398,-97.0727,0.0,3.6,190.0,,'1111122,1111122,1111122' 
TCOON,ioos:station:TCOON:009:1,2009-09-09T09:00:00Z,27.8398,-97.0727,0.0,3.6,180.0,,'1111122,1111122,1111122' 
TCOON,ioos:station:TCOON:009:1,2009-09-09T10:00:00Z,27.8398,-97.0727,0.0,3.1,170.0,,'1111122,1111122,1111122' 
TCOON,ioos:station:TCOON:009:1,2009-09-09T11:00:00Z,27.8398,-97.0727,0.0,1.5,150.0,,'1111122,1111122,1111122' 
TCOON,ioos:station:TCOON:009:1,2009-09-09T12:00:00Z,27.8398,-97.0727,0.0,2.6,150.0,,'1111122,1111122,1111122' 
TCOON,ioos:station:TCOON:009:1,2009-09-09T13:00:00Z,27.8398,-97.0727,0.0,1.0,140.0,,'1111122,1111122,1111122' 
TCOON,ioos:station:TCOON:009:1,2009-09-09T15:00:00Z,27.8398,-97.0727,0.0,1.0,40.0,,'1111122,1111122,1111122' 
TCOON,ioos:station:TCOON:009:1,2009-09-09T16:00:00Z,27.8398,-97.0727,0.0,4.6,80.0,,'1111122,1111122,1111122' 